Location: Fort Wayne
(41.1310°N, 85.1290°W)
Time: 12:06:20
(UTC-05:00)

IDEFIX/ARIANE 42P - Visible Passes

Search period start: 17 January 2017 00:00
Search period end: 27 January 2017 00:00
Orbit: 786 x 802 km, 98.2° (Epoch: 17 January)

Date Brightness Start Highest point End Pass type
(mag) Time Alt. Az. Time Alt. Az. Time Alt. Az.
17 Jan 4.9 06:00:32 10° NE 06:04:52 25° E 06:09:10 10° SSE visible
17 Jan 4.8 18:58:49 10° SSW 19:03:13 28° W 19:07:40 10° NW visible
18 Jan 5.7 05:33:39 10° ENE 05:36:15 14° E 05:38:51 10° ESE visible
18 Jan 2.6 07:11:07 10° N 07:16:22 72° WNW 07:21:36 10° SSW visible
18 Jan 3.6 18:29:42 10° S 18:34:44 50° W 18:39:51 10° NNW visible
19 Jan 3.1 06:42:48 10° NNE 06:48:04 63° E 06:53:16 10° S visible
19 Jan 6.0 19:45:47 10° W 19:46:40 10° W 19:47:33 10° WNW visible
20 Jan 4.3 06:14:50 10° NNE 06:19:38 35° E 06:24:24 10° SSE visible
20 Jan 5.3 19:14:13 10° SW 19:18:00 20° W 19:21:49 10° NW visible
21 Jan 5.3 05:47:22 10° NE 05:51:05 19° E 05:54:47 10° SE visible
21 Jan 2.7 07:25:51 10° N 07:30:59 52° WNW 07:36:04 10° SSW visible
21 Jan 4.3 18:44:41 10° SSW 18:49:28 36° W 18:54:18 10° NNW visible
22 Jan 2.7 06:57:25 10° NNE 07:02:44 87° ESE 07:08:00 10° SSW visible
22 Jan 3.1 18:15:52 10° S 18:21:02 67° WSW 18:26:17 10° NNW visible
23 Jan 3.7 06:29:16 10° NNE 06:34:22 48° E 06:39:26 10° S visible
23 Jan 5.7 19:30:02 10° WSW 19:32:50 14° W 19:35:38 10° WNW visible
24 Jan 4.8 06:01:28 10° NE 06:05:53 26° E 06:10:15 10° SSE visible
24 Jan 4.9 18:59:52 10° SSW 19:04:13 27° W 19:08:36 10° NW visible
25 Jan 5.7 05:34:27 10° ENE 05:37:16 14° E 05:40:04 10° ESE visible
25 Jan 2.6 07:12:06 10° N 07:17:21 69° WNW 07:22:35 10° SSW visible
25 Jan 3.7 18:30:43 10° S 18:35:44 48° W 18:40:49 10° NNW visible
26 Jan 3.0 06:43:47 10° NNE 06:49:04 66° ESE 06:54:16 10° S visible
